Location: Pebble Beach Sunset Acres
(33.0837°N, 96.4508°W)
Time: 17:33:35
(UTC+00:00)

DELTA 2 R/B (1) - Pass Details

Date: 29 June 2022
Orbit: 790 x 802 km, 39.6° (Epoch: 18 August)

Event Time Altitude Azimuth Distance (km) Brightness Sun altitude
Rises 04:21:03 0° 292° (WNW) 3,299 7.6 -25.9°
Reaches altitude 10° 04:23:34 10° 289° (WNW) 2,369 6.7 -26.2°
Enters shadow 04:28:40 60° 232° (SW) 910 3.7 -26.8°
